View from above orbital plane
|
View from above satellite
|
Ground track
|
The orbit data is extracted from the following two-line orbital elements,
1 13153U 82039A 21057.77327490 .00004317 00000-0 10246-3 0 9990
2 13153 81.0887 48.3028 0004064 94.7527 265.4179 15.41450664127077
Epoch (UTC): | 26 February 2021 18:33:30 |
Eccentricity: | 0.0004064 |
inclination: | 81.0887° |
perigee height: | 439 km |
apogee height: | 444 km |
right ascension of ascending node: | 48.3028° |
argument of perigee: | 94.7527° |
revolutions per day: | 15.41450664 |
mean anomaly at epoch: | 265.4179° |
orbit number at epoch: | 12707 |
The dashed part of the orbit path shows where the satellite is in the earth's shadow,
|
|